Skip Page Navigation
NASA JPL Caltech
NASA Logo - Jet Propulsion Laboratory + View the NASA Portal
+ Center for Near-Earth Object Studies
JPL Home Earth Solar System Stars & Galaxies Technology
JPL Solar System Dynamics
BODIES ORBITS EPHEMERIDES TOOLS PHYSICAL DATA DISCOVERY FAQ SITE MAP
JPL Small-Body Database Browser
Search: [ help ]  
135267 (2001 SC80)
Classification: Main-belt Asteroid          SPK-ID: 2135267
Ephemeris | Orbit Diagram | Orbital Elements | Mission Design | Physical Parameters | Discovery Circumstances ]

[ show orbit diagram ]
Orbital Elements at Epoch 2459200.5 (2020-Dec-17.0) TDB
Reference: JPL 20 (heliocentric ecliptic J2000)
 Element Value Uncertainty (1-sigma)   Units 
e .1216543396242325 5.6586e-08  
a 3.027226919637974 2.7411e-08 au
q 2.658951627836717 1.8153e-07 au
i 2.983642078212198 5.6265e-06 deg
node 243.081374058173 9.9068e-05 deg
peri 122.7172825171167 0.00010146 deg
M 208.3168437161933 2.6645e-05 deg
tp 2460011.089078983971
(2023-Mar-07.58907898)
0.00014967 TDB
period 1923.826452346724
5.27
2.613e-05
7.154e-08
d
yr
n .1871270662490706 2.5416e-09 deg/d
Q 3.395502211439231 3.0746e-08 au
  Orbit Determination Parameters
   # obs. used (total)      507  
   data-arc span      8065 days (22.08 yr)  
   first obs. used      1999-03-22  
   last obs. used      2021-04-20  
   planetary ephem.      DE441  
   SB-pert. ephem.      SB441-N16  
   condition code      0  
   norm. resid. RMS      .57511  
   source      ORB  
   producer      Otto Matic  
   solution date      2021-May-04 09:21:01  

Additional Information
 Earth MOID = 1.65733 au 
 Jupiter MOID = 2.08477 au 
 T_jup = 3.231 
[ show covariance matrix ]

Ephemeris | Orbit Diagram | Orbital Elements | Mission Design | Physical Parameters | Discovery Circumstances ]

Physical Parameter Table
Parameter Symbol Value Units Sigma Reference Notes
absolute magnitude H 15.30   n/a E2021B55  

135267 (2001 SC80)          Discovered 2001-Sep-20 by LINEAR at Socorro
Reference: 20060907/Numbers.arcLast Updated: 2006-09-10

Alternate Designations
 2001 SC80 = 2001 QY322 
Ephemeris | Orbit Diagram | Orbital Elements | Mission Design | Physical Parameters | Discovery Circumstances ]
ABOUT SSD CREDITS/AWARDS PRIVACY/COPYRIGHT GLOSSARY LINKS
FirstGov 2021-May-17 17:43 UT
(server date/time)  
NASA Home Page
Site Manager:   Ryan S. Park
Webmaster  Alan B. Chamberlin